Location: Billancourt
(48.8357°N, 2.2473°E)
Time: 19:13:53
(UTC+00:00)

Daily predictions for brighter satellites

Satellite Brightness Start Highest point End
(mag) Time Altitude Azimuth Time Altitude Azimuth Time Altitude Azimuth
USA 234 4.3 20:06:50 10° ENE 20:13:00 45° N 20:19:10 10° WNW
Cosmos 1606 2.9 20:12:45 10° N 20:16:28 53° ENE 20:20:10 10° SSE
BREEZE-M DEB (TANK) 3.9 20:14:56 10° SSW 20:18:20 35° SE 20:27:51 10° ENE
USA 276 2.4 20:16:04 10° W 20:19:13 68° N 20:22:22 10° E
Terra 3.5 20:17:50 10° ESE 20:21:16 20° ENE 20:24:42 10° NNE
SAR-Lupe-4 4.4 20:18:11 10° N 20:21:44 56° WNW 20:25:14 10° SSW
Gbstr 26 Del rocket 3.2 20:18:58 10° WNW 20:22:39 57° N 20:26:32 10° E
ISS -3.4 20:19:44 10° WNW 20:23:06 63° NNE 20:26:28 10° E
Cosmos 2369 3.8 20:17:54 10° NNW 20:23:36 86° WSW 20:29:15 10° SSE
COSMOS 2406 3.3 20:22:47 10° SSW 20:28:28 90° SSW 20:34:14 10° NNE
SPOT 1/Viking Rocket 3.7 20:25:01 10° SSE 20:30:08 66° ENE 20:35:20 10° N
Cosmos 1980 Rocket 2.2 20:24:54 10° NNW 20:30:33 81° ENE 20:36:12 10° SSE
Ariane Rocket 3.7 20:25:39 10° S 20:30:37 55° W 20:35:37 10° NNW
Resurs 01 Rocket 1.8 20:27:11 10° S 20:31:37 75° WSW 20:36:06 10° NNW
CZ-4C R/B 4.4 20:28:15 10° W 20:33:00 30° NNW 20:38:40 10° NE
USA 245 4.0 20:31:08 10° SSE 20:36:28 61° ENE 20:40:51 10° N
Cosmos 1825 3.6 20:33:33 10° SW 20:37:06 40° WNW 20:40:41 10° N
Cosmos 2322 Rocket 3.5 20:34:06 10° NNW 20:38:57 28° NE 20:43:45 10° ESE
Cosmos 332 Rocket 4.4 20:37:51 10° NNW 20:42:33 44° ENE 20:46:42 13° SE
Cosmos 1782 4.1 20:42:22 10° NNE 20:45:47 26° ENE 20:48:31 13° ESE
Landsat 7 4.3 20:41:32 10° S 20:46:14 63° WSW 20:50:59 10° NNW
ERBS 3.3 20:43:27 10° WNW 20:46:25 34° SW 20:48:56 13° SSE
Cosmos 2221 3.4 20:44:29 10° NNW 20:48:40 50° W 20:52:49 10° S
Meteor 2-15 4.5 20:42:49 10° N 20:48:54 69° ENE 20:54:49 10° SSE
MetOp-B 4.3 20:43:40 10° SSE 20:49:02 80° WSW 20:54:26 10° NNW
Cosmos 1633 2.5 20:48:46 10° S 20:52:22 89° W 20:56:01 10° N
ARIANE 5 R/B 2.8 20:54:46 14° SSE 20:58:34 63° ENE 21:03:00 10° N
NOSS 3-4 (A) 4.4 20:53:53 10° WSW 20:59:38 52° NW 21:05:53 10° NE
NOSS 3-4 (C) 4.4 20:53:58 10° WSW 20:59:43 52° NW 21:06:00 10° NE
CARTOSAT-1 3.5 20:56:35 13° SSE 21:00:22 76° ENE 21:04:43 10° N
Cosmos 773 Rocket 4.3 20:57:50 10° SSW 21:03:02 70° WNW 21:08:13 10° NNE
Cosmos 2219 Rocket 4.4 21:00:45 10° N 21:03:59 15° NNE 21:07:12 10° ENE
Meteor 2-15 Rocket 4.5 20:59:28 10° N 21:05:35 73° ENE 21:10:51 14° SSE
SL-16 R/B 2.7 21:00:07 10° NNW 21:05:38 49° NE 21:10:00 16° SE
ATLAS 2AS CENTAUR R/B 3.2 21:00:32 10° SW 21:08:29 77° NW 21:16:12 10° NE
ERS-2 4.3 21:06:56 10° N 21:10:06 28° WNW 21:13:15 10° SW
Cosmos 2195 Rocket 4.5 21:05:45 10° S 21:11:47 64° E 21:17:50 10° NNE
Cosmos 1271 Rocket 2.9 21:09:47 10° N 21:13:45 64° ENE 21:16:20 21° SSE
Cosmos 2151 2.9 21:13:49 10° S 21:18:03 89° W 21:22:21 10° N
USA 267 3.7 21:14:18 10° ENE 21:20:16 36° SE 21:26:13 10° SSW
ATLAS 3B R/B 3.0 21:13:54 10° NW 21:20:55 66° SW 21:26:36 18° SSE
CZ-2C R/B 4.0 21:17:02 10° N 21:21:36 68° WNW 21:26:02 10° SSW
ERS-1 Rocket 2.9 21:20:45 18° SSE 21:24:35 89° E 21:29:39 10° NNW
Cosmos 44 Rocket 4.4 21:20:03 10° WSW 21:25:09 53° NW 21:30:18 10° NNE
Cosmos 304 Rocket 3.7 21:20:56 10° NNW 21:25:46 88° WSW 21:28:55 22° SSE
Cosmos 1766 Rocket 4.1 21:24:14 22° SSE 21:26:36 42° E 21:30:45 10° NNE
Cosmos 1092 Rocket 4.0 21:20:25 10° S 21:26:39 85° E 21:33:00 10° N
Cosmos 1680 Rocket 4.1 21:27:07 20° SSE 21:30:11 38° ESE 21:35:02 10° NE
Spot 2 Rocket 4.0 21:26:33 14° S 21:30:56 59° WSW 21:36:00 10° NNW
RESURS DK-1 3.5 21:30:27 10° SW 21:34:28 47° NW 21:38:31 10° NNE
Cosmos 1328 Rocket 3.9 21:30:44 10° N 21:35:07 52° ENE 21:37:21 26° SE
Cosmos 158 Rocket 3.9 21:32:18 10° SSW 21:37:26 88° ESE 21:42:45 10° NNE
ATLAS 5 CENTAUR R/B 4.2 21:35:21 10° NNW 21:39:14 21° NNE 21:43:37 10° ENE
Meteor 1-26 Rocket 4.4 21:33:33 10° NNW 21:39:34 77° W 21:43:55 19° S
Cosmos 2082 Rocket 3.1 21:34:37 10° SW 21:40:05 50° NW 21:45:37 10° NNE
Cosmos 1151 Rocket 3.0 21:35:53 10° N 21:40:15 76° E 21:42:34 27° SSE
Cosmos 2026 Rocket 4.0 21:37:31 11° S 21:43:37 89° W 21:49:57 10° N
GP-B 3.5 21:40:38 10° N 21:45:02 62° W 21:48:30 16° SSW
Cosmos 1933 4.2 21:41:35 10° NNW 21:45:28 44° W 21:48:15 17° SSW
H-2A R/B 3.8 21:41:43 10° NNE 21:45:46 46° E 21:47:22 30° SSE
SPOT 5 3.1 21:44:02 20° S 21:46:51 55° W 21:51:09 10° NNW
BREEZE-M DEB (TANK) 2.3 21:45:51 10° W 21:52:33 88° N 21:54:05 26° E
Cosmos 2333 Rocket 3.5 21:48:10 10° NNW 21:53:09 31° NE 21:57:11 14° ESE
Cosmos 2360 Rocket 2.7 21:47:49 10° NNW 21:53:21 52° NE 21:56:38 24° ESE
USA 276 2.0 21:52:19 10° WNW 21:55:28 71° SSW 21:56:01 54° SE
USA 234 3.5 21:49:36 13° ESE 21:55:32 70° NNE 22:02:05 10° NW
Terra 2.1 21:55:47 24° S 21:58:35 63° WSW 22:03:20 10° NNW
Meteor 2-21 4.5 21:54:35 23° S 21:58:37 69° E 22:04:45 10° NNE
COSMOS 2455 4.4 21:59:06 17° ESE 21:59:31 17° ESE 22:03:11 10° ENE
ISS -3.1 21:56:40 10° WNW 21:59:51 39° SSW 22:00:07 38° SSW
Okean 3 Rocket 3.6 22:01:29 26° S 22:04:01 87° W 22:08:34 10° N
Cosmos 1812 2.6 22:00:33 10° N 22:04:26 89° E 22:05:43 41° S
Cosmos 1624 Rocket 4.0 22:02:07 10° NNW 22:07:20 75° ENE 22:09:46 32° SE
Gbstr 26 Del rocket 2.8 22:05:43 10° WNW 22:09:28 60° SSW 22:10:32 42° SSE
Cosmos 1500 Rocket 4.4 22:10:11 31° ESE 22:11:07 34° E 22:15:08 10° NNE
COBE Rocket 4.2 22:11:54 31° SE 22:13:41 49° ENE 22:18:12 10° N
Cosmos 1980 Rocket 4.3 22:10:11 10° WNW 22:13:51 18° W 22:17:31 10° SW
Cosmos 1862 3.2 22:14:02 42° S 22:15:20 79° E 22:19:20 10° NNE
Cosmos 1420 Rocket 4.2 22:15:35 10° NNW 22:20:55 67° ENE 22:23:14 34° SE
Cosmos 2237 Rocket 4.5 22:17:27 10° N 22:21:12 18° NE 22:24:56 10° ENE
Cosmos 1553 Rocket 4.1 22:15:24 10° NNW 22:21:26 67° W 22:24:58 26° S
Cosmos 1782 4.3 22:18:33 10° NNW 22:22:05 30° W 22:24:06 19° SW
Cosmos 2322 Rocket 2.4 22:17:51 10° NNW 22:23:27 63° WSW 22:25:58 32° S
Cosmos 2266 Rocket 4.0 22:26:51 32° SSE 22:29:45 68° E 22:35:55 10° NNE
Cosmos 1743 Rocket 3.9 22:28:48 42° SE 22:29:49 51° E 22:34:09 10° NNE
Cosmos 1408 Rocket 3.5 22:29:17 39° SSW 22:30:52 86° W 22:35:15 10° N
Meteor 2-16 Rocket 4.4 22:28:09 31° S 22:31:15 78° E 22:37:21 10° NNE
Cosmos 220 Rocket 4.4 22:27:53 10° NNW 22:32:06 53° WSW 22:33:21 39° SSW
NOSS 3-1 (C) 4.2 22:26:54 10° NW 22:34:09 70° NE 22:40:11 21° SE
Cosmos 1655 Rocket 4.0 22:31:04 30° S 22:34:26 81° E 22:40:52 10° N
NOSS 2-1 (E) 3.8 22:35:22 36° E 22:35:22 36° E 22:37:46 10° NE
Cosmos 2228 Rocket 3.5 22:31:34 10° N 22:35:53 51° ENE 22:36:59 40° ESE
Cosmos 1452 Rocket 4.1 22:32:15 10° NNW 22:37:23 49° ENE 22:39:37 30° ESE
BREEZE-M DEB (TANK) 4.4 22:36:37 10° W 22:40:40 31° SSW 22:42:39 28° S
Cosmos 883 Rocket 4.4 22:39:14 10° N 22:45:28 85° E 22:48:14 36° SSE
USA 229 DEB 4.4 22:39:29 10° NW 22:46:35 57° NE 22:52:43 16° ESE
USA 229 4.4 22:39:34 10° NW 22:46:41 57° NE 22:52:51 16° ESE
Cosmos 2056 Rocket 3.9 22:41:27 10° NNW 22:46:42 55° WSW 22:48:36 36° SSW
Sich 1 3.8 22:46:18 34° ESE 22:46:48 35° E 22:50:47 10° NNE
Cosmos 1174 3.3 22:43:57 10° NNW 22:46:45 64° NNE 22:46:45 64° NNE
Cosmos 2333 4.2 22:43:35 10° NNW 22:49:13 77° ENE 22:51:27 38° SE
Cosmos 2219 Rocket 2.5 22:43:41 10° NNW 22:49:14 57° ENE 22:51:47 31° ESE
SL-16 R/B 3.4 22:44:35 10° NW 22:49:33 32° WSW 22:51:51 24° SW
S3M 4.3 22:43:35 10° NNW 22:49:53 62° W 22:53:07 30° SSW
IRIDIUM 104 4.3 22:45:07 10° N 22:50:23 83° E 22:52:09 43° S
COSMOS 2428 3.3 22:45:32 10° NNW 22:51:05 50° NE 22:53:57 27° ESE
Cosmos 1515 Rocket 4.2 22:47:19 10° NNW 22:51:36 47° W 22:52:57 35° SW
Cosmos 292 Rocket 3.8 22:52:58 10° NNW 22:57:43 68° WSW 22:58:53 48° S
IRIDIUM 114 4.3 22:54:16 10° N 22:59:31 83° W 23:01:16 43° S
Meteor 1-27 Rocket 3.7 22:55:07 10° NNW 23:00:44 76° W 23:02:50 40° S
SL-27 R/B 2.8 23:00:41 52° WSW 23:01:14 61° WNW 23:04:50 10° NNE
COSMOS 2487 3.6 23:03:00 31° ENE 23:03:00 31° ENE 23:05:20 10° NE
USA 267 3.3 22:57:07 10° NE 23:03:42 84° NNW 23:10:16 10° WSW
Cosmos 2084 3.2 23:05:36 51° SW 23:06:35 87° NW 23:10:47 10° NE
NOSS 3-1 (A) 4.2 22:59:47 10° NW 23:07:04 69° NE 23:13:22 20° SE
IRIDIUM 103 4.4 23:03:27 10° N 23:08:40 70° W 23:10:24 42° SSW
ALOS 2 2.5 23:08:33 57° SSE 23:09:24 82° ENE 23:13:50 10° NNW
Cosmos 1515 3.8 23:07:41 10° N 23:11:25 57° ENE 23:11:36 56° E
Cosmos 1707 Rocket 3.7 23:13:43 10° N 23:18:03 62° ENE 23:18:45 53° ESE
NOSS 2-1 (C) 3.5 23:18:24 46° W 23:18:55 52° NW 23:22:19 10° NE
Spot 4 4.3 23:19:32 40° SW 23:20:43 49° W 23:25:24 10° NNW
ATLAS 5 CENTAUR R/B 2.7 23:19:32 10° NW 23:24:50 59° NE 23:28:59 21° ESE
NOSS 2-1 (D) 3.9 23:25:51 36° W 23:26:37 44° NW 23:29:59 10° NNE
Meteor 1-20 Rocket 4.1 23:26:30 46° S 23:28:15 82° E 23:33:56 10° NNE
Cosmos 1244 Rocket 4.4 23:32:41 43° S 23:34:52 79° E 23:41:05 10° NNE
Cosmos 2360 Rocket 3.3 23:32:16 10° NW 23:37:04 29° WSW 23:38:22 27° SW
Cosmos 1666 4.1 23:37:08 26° E 23:37:08 26° E 23:40:20 10° NNE
Cosmos 1805 Rocket 3.9 23:36:07 46° SW 23:37:06 58° WNW 23:41:31 10° N
Cosmos 2333 Rocket 2.4 23:32:14 10° NW 23:37:46 57° WSW 23:39:10 44° SSW
USA 234 3.5 23:36:56 39° S 23:38:46 48° SW 23:45:06 10° WNW
Meteor 1-18 Rocket 4.3 23:35:23 10° N 23:41:18 79° ENE 23:43:16 44° SSE
Cosmos 1980 4.4 23:36:55 10° NNW 23:42:27 50° NE 23:45:31 25° ESE
COSMOS 2455 2.7 23:42:13 39° SSW 23:44:35 85° ESE 23:50:39 10° NE
Okean 1 3.2 23:44:22 10° NNW 23:48:24 75° W 23:48:34 73° SW
SAR-Lupe-2 3.8 23:45:50 10° NNE 23:49:08 60° ENE 23:49:08 60° ENE
Cosmos 2322 4.1 23:45:34 10° NW 23:51:03 48° WSW 23:52:20 41° SW
Cosmos 1048 Rocket 3.9 23:50:02 48° SSW 23:51:29 83° WNW 23:56:38 10° NNE
Cosmos 2285 Rocket 4.3 23:46:10 10° NNW 23:52:17 54° WSW 23:54:12 40° SSW
Cosmos 494 Rocket 3.8 23:53:25 54° SSW 23:54:37 83° ESE 23:59:46 10° NNE
